Tunica, MS

4:25 AM CST on February 25, 2018 (GMT -0600)
Tunica

Weather History for KUTA - April, 2013

Change the Weather History Date:

Tuesday, April 2, 2013

  Actual Average (KAWM) Record (KAWM)
Temperature  
Mean Temperature 47 °F -  
Max Temperature 53 °F 69 °F 84 °F (2012)
Min Temperature 41 °F 45 °F 28 °F (1985)
Degree Days  
Heating Degree Days 18    
Moisture  
Dew Point 36 °F    
Average Humidity 67    
Maximum Humidity 87    
Minimum Humidity 44    
Precipitation  
Precipitation 0.00 in - - ()
Sea Level Pressure  
Sea Level Pressure 30.21 in    
Wind  
Wind Speed 10 mph (NNE)    
Max Wind Speed 20 mph    
Max Gust Speed 23 mph    
Visibility 10 miles    
Events Rain    
Averages and records for this station are not official NWS values.
T = Trace of Precipitation, MM = Missing Value Source: NWS Daily Summary

Daily Weather History Graph

Daily Weather History Graph

Search for Another Location

Airport or City:

Trip Planner

Search our weather history database for the weather conditions in past years. The results will help you decide how hot, cold, wet, or windy it might be!

Date:

Astronomy

Apr. 02, 2013 Rise Set
Actual Time 6:46 AM CDT 7:23 PM CDT
Civil Twilight 6:21 AM CDT 7:48 PM CDT
Nautical Twilight 5:51 AM CDT 8:18 PM CDT
Astronomical Twilight 5:20 AM CDT 8:49 PM CDT
Moon 1:18 AM CDT (4/2) 11:47 AM CDT (4/2)
Length of Visible Light 13h 27m
Length of Day
12h 36m
Waning Gibbous, 55% of the Moon is Illuminated
Apr 2
Waning Gibbous
Apr 2
Last Quarter
Apr 10
New
Apr 18
First Quarter
Apr 25
Full

Hourly Weather History & Observations

Time (CDT) Temp. Windchill Dew Point Humidity Pressure Visibility Wind Dir Wind Speed Gust Speed Precip Events Conditions
12:15 AM 50.0 °F - 44.6 °F 82% 30.12 in 10.0 mi NNE 5.8 mph - N/A   Clear
12:35 AM 50.0 °F - 44.6 °F 82% 30.13 in 10.0 mi NNE 5.8 mph - N/A   Clear
12:55 AM 48.2 °F - 44.6 °F 87% 30.13 in 10.0 mi NNE 4.6 mph - N/A   Clear
1:15 AM 48.2 °F - 42.8 °F 82% 30.14 in 10.0 mi North 5.8 mph - N/A   Clear
1:35 AM 50.0 °F - 44.6 °F 82% 30.14 in 10.0 mi NNE 6.9 mph - N/A   Clear
1:55 AM 50.0 °F - 44.6 °F 82% 30.15 in 10.0 mi NNE 4.6 mph - N/A   Clear
2:15 AM 48.2 °F - 42.8 °F 82% 30.16 in 10.0 mi North 8.1 mph - N/A   Clear
2:35 AM 48.2 °F - 42.8 °F 82% 30.16 in 10.0 mi NNE 6.9 mph - N/A   Clear
2:55 AM 50.0 °F - 42.8 °F 76% 30.16 in 10.0 mi NNE 6.9 mph - N/A   Clear
3:15 AM 50.0 °F - 42.8 °F 76% 30.16 in 10.0 mi North 4.6 mph - N/A   Mostly Cloudy
3:35 AM 50.0 °F - 42.8 °F 76% 30.17 in 10.0 mi NNE 8.1 mph - N/A   Mostly Cloudy
3:55 AM 50.0 °F - 42.8 °F 76% 30.16 in 10.0 mi NNE 9.2 mph - N/A   Mostly Cloudy
4:15 AM 50.0 °F - 41.0 °F 71% 30.17 in 10.0 mi NNE 10.4 mph 16.1 mph N/A   Scattered Clouds
4:35 AM 48.2 °F - 41.0 °F 76% 30.16 in 10.0 mi NNE 8.1 mph - N/A   Scattered Clouds
4:55 AM 50.0 °F - 37.4 °F 62% 30.17 in 10.0 mi NNE 13.8 mph - N/A   Mostly Cloudy
5:15 AM 48.2 °F - 37.4 °F 66% 30.17 in 10.0 mi NNE 11.5 mph 17.3 mph N/A   Mostly Cloudy
5:35 AM 48.2 °F - 35.6 °F 62% 30.18 in 10.0 mi NE 11.5 mph - N/A   Mostly Cloudy
5:55 AM 46.4 °F 41.1 °F 35.6 °F 66% 30.18 in 10.0 mi NE 11.5 mph - N/A   Overcast
6:15 AM 46.4 °F 40.7 °F 35.6 °F 66% 30.19 in 10.0 mi NE 12.7 mph - N/A   Overcast
6:35 AM 46.4 °F 41.5 °F 33.8 °F 62% 30.19 in 10.0 mi NE 10.4 mph - N/A   Mostly Cloudy
6:55 AM 46.4 °F 41.9 °F 33.8 °F 62% 30.20 in 10.0 mi NE 9.2 mph - N/A   Scattered Clouds
7:15 AM 46.4 °F 42.9 °F 33.8 °F 62% 30.22 in 10.0 mi NNE 6.9 mph - N/A   Overcast
7:35 AM 46.4 °F 41.9 °F 33.8 °F 62% 30.23 in 10.0 mi NE 9.2 mph - N/A   Overcast
7:55 AM 46.4 °F 41.9 °F 33.8 °F 62% 30.24 in 10.0 mi NE 9.2 mph - N/A   Overcast
8:15 AM 46.4 °F 41.1 °F 33.8 °F 62% 30.25 in 10.0 mi NE 11.5 mph - N/A   Overcast
8:35 AM 46.4 °F 41.5 °F 33.8 °F 62% 30.25 in 10.0 mi NE 10.4 mph 16.1 mph N/A   Overcast
8:55 AM 46.4 °F 40.7 °F 32.0 °F 57% 30.23 in 10.0 mi NE 12.7 mph - N/A   Mostly Cloudy
9:35 AM 48.2 °F - 32.0 °F 54% 30.25 in 10.0 mi NE 11.5 mph - N/A   Overcast
9:55 AM 50.0 °F - 32.0 °F 50% 30.25 in 10.0 mi NE 11.5 mph - N/A   Overcast
10:15 AM 50.0 °F - 32.0 °F 50% 30.25 in 10.0 mi ENE 10.4 mph 16.1 mph N/A   Overcast
10:55 AM 50.0 °F - 32.0 °F 50% 30.25 in 10.0 mi ENE 12.7 mph - N/A   Overcast
11:15 AM 50.0 °F - 32.0 °F 50% 30.26 in 10.0 mi ENE 12.7 mph - N/A   Overcast
11:35 AM 50.0 °F - 32.0 °F 50% 30.26 in 10.0 mi NE 12.7 mph - N/A   Mostly Cloudy
11:55 AM 51.8 °F - 32.0 °F 47% 30.26 in 10.0 mi NE 10.4 mph - N/A   Scattered Clouds
12:15 PM 51.8 °F - 32.0 °F 47% 30.27 in 10.0 mi ENE 11.5 mph - N/A   Mostly Cloudy
12:35 PM 51.8 °F - 32.0 °F 47% 30.26 in 10.0 mi NNE 11.5 mph - N/A   Mostly Cloudy
12:55 PM 53.6 °F - 33.8 °F 47% 30.25 in 10.0 mi NE 12.7 mph 17.3 mph N/A   Scattered Clouds
1:15 PM 53.6 °F - 32.0 °F 44% 30.25 in 10.0 mi NE 10.4 mph 16.1 mph N/A   Clear
1:35 PM 51.8 °F - 32.0 °F 47% 30.25 in 10.0 mi NNE 10.4 mph - N/A   Clear
1:55 PM 51.8 °F - 32.0 °F 47% 30.23 in 10.0 mi NNE 11.5 mph - N/A   Scattered Clouds
2:15 PM 51.8 °F - 32.0 °F 47% 30.22 in 10.0 mi NNE 12.7 mph 20.7 mph N/A   Scattered Clouds
2:35 PM 51.8 °F - 32.0 °F 47% 30.21 in 10.0 mi NE 15.0 mph 20.7 mph N/A   Clear
3:15 PM 51.8 °F - 33.8 °F 50% 30.21 in 10.0 mi North 16.1 mph - N/A   Scattered Clouds
3:35 PM 51.8 °F - 32.0 °F 47% 30.21 in 10.0 mi North 17.3 mph - N/A   Scattered Clouds
3:55 PM 50.0 °F - 32.0 °F 50% 30.21 in 10.0 mi NNE 15.0 mph 21.9 mph N/A   Scattered Clouds
4:15 PM 50.0 °F - 32.0 °F 50% 30.21 in 10.0 mi NNE 18.4 mph - N/A   Scattered Clouds
4:35 PM 50.0 °F - 33.8 °F 54% 30.20 in 10.0 mi NNE 15.0 mph - N/A   Scattered Clouds
4:55 PM 50.0 °F - 33.8 °F 54% 30.21 in 10.0 mi NNE 19.6 mph - N/A   Scattered Clouds
5:15 PM 46.4 °F 39.8 °F 35.6 °F 66% 30.22 in 10.0 mi NNE 16.1 mph 19.6 mph N/A   Light Drizzle
5:35 PM 46.4 °F 39.5 °F 33.8 °F 62% 30.22 in 10.0 mi North 17.3 mph 23.0 mph N/A   Scattered Clouds
5:55 PM 44.6 °F 37.8 °F 33.8 °F 66% 30.23 in 10.0 mi North 15.0 mph - N/A   Scattered Clouds
6:15 PM 44.6 °F 37.2 °F 35.6 °F 71% 30.22 in 10.0 mi North 17.3 mph - N/A   Scattered Clouds
6:35 PM 42.8 °F 34.8 °F 35.6 °F 76% 30.22 in 10.0 mi NNE 17.3 mph - N/A   Mostly Cloudy
6:55 PM 42.8 °F 34.8 °F 37.4 °F 81% 30.20 in 10.0 mi NNE 17.3 mph - N/A Rain Light Rain
7:15 PM 42.8 °F 34.8 °F 37.4 °F 81% 30.21 in 10.0 mi NNE 17.3 mph - N/A Rain Light Rain
7:35 PM 42.8 °F 35.8 °F 37.4 °F 81% 30.21 in 10.0 mi NNE 13.8 mph - N/A   Light Drizzle
7:55 PM 42.8 °F 35.8 °F 37.4 °F 81% 30.21 in 10.0 mi NNE 13.8 mph - N/A   Light Drizzle
8:15 PM 41.0 °F 33.5 °F 37.4 °F 87% 30.22 in 10.0 mi NNE 13.8 mph - N/A   Overcast
8:35 PM 41.0 °F 33.1 °F 37.4 °F 87% 30.21 in 10.0 mi NNE 15.0 mph - N/A   Overcast
8:55 PM 41.0 °F 33.1 °F 37.4 °F 87% 30.22 in 10.0 mi NNE 15.0 mph - N/A   Overcast
9:15 PM 41.0 °F 34.3 °F 37.4 °F 87% 30.23 in 10.0 mi NNE 11.5 mph 17.3 mph N/A   Light Drizzle
9:35 PM 41.0 °F 33.5 °F 37.4 °F 87% 30.24 in 10.0 mi NNE 13.8 mph - N/A   Scattered Clouds
9:55 PM 41.0 °F 33.1 °F 37.4 °F 87% 30.23 in 10.0 mi NNE 15.0 mph 20.7 mph N/A   Clear
10:15 PM 41.0 °F 33.1 °F 37.4 °F 87% 30.23 in 10.0 mi NNE 15.0 mph - N/A   Clear
10:35 PM 41.0 °F 33.5 °F 37.4 °F 87% 30.23 in 10.0 mi NE 13.8 mph - N/A   Clear
10:55 PM 41.0 °F 34.3 °F 37.4 °F 87% 30.22 in 10.0 mi NE 11.5 mph - N/A   Clear
11:15 PM 41.0 °F 34.3 °F 35.6 °F 81% 30.21 in 10.0 mi NNE 11.5 mph 18.4 mph N/A   Light Drizzle
11:35 PM 41.0 °F 35.2 °F 35.6 °F 81% 30.21 in 10.0 mi NNE 9.2 mph - N/A   Light Drizzle
11:55 PM 41.0 °F 34.7 °F 35.6 °F 81% 30.21 in 10.0 mi NNE 10.4 mph - N/A   Light Drizzle